Port Isabel, TX

9:14 PM CST on December 03, 2016 (GMT -0600)
Port Isabel-Cameron County

Weather History for KPIL - October, 2012

Change the Weather History Date:

Saturday, October 6, 2012

  Actual Average (KBRO) Record (KBRO)
Temperature  
Mean Temperature 78 °F 78 °F  
Max Temperature 89 °F 87 °F 96 °F (1894)
Min Temperature 68 °F 69 °F 54 °F (1880)
Degree Days  
Heating Degree Days 0 0  
Month to date heating degree days 0  
Since 1 July heating degree days 0  
Cooling Degree Days 13 13  
Month to date cooling degree days 82  
Year to date cooling degree days 3493  
Growing Degree Days 28 (Base 50)    
Moisture  
Dew Point 68 °F    
Average Humidity 70    
Maximum Humidity 87    
Minimum Humidity 53    
Precipitation  
Precipitation 0.00 in 0.14 in 3.33 in (1930)
Month to date precipitation 0.92  
Year to date precipitation 21.65  
Sea Level Pressure  
Sea Level Pressure 29.95 in    
Wind  
Wind Speed 6 mph (ESE)    
Max Wind Speed 15 mph    
Max Gust Speed 21 mph    
Visibility 10 miles    
Events      
T = Trace of Precipitation, MM = Missing Value Source: NWS Daily Summary

Daily Weather History Graph

Daily Weather History Graph

Search for Another Location

Airport or City:

Trip Planner

Search our weather history database for the weather conditions in past years. The results will help you decide how hot, cold, wet, or windy it might be!

Date:

Astronomy

Oct. 06, 2012 Rise Set
Actual Time 7:24 AM CDT 7:09 PM CDT
Civil Twilight 7:01 AM CDT 7:33 PM CDT
Nautical Twilight 6:34 AM CDT 7:59 PM CDT
Astronomical Twilight 6:07 AM CDT 8:26 PM CDT
Moon 11:51 PM CDT (10/6) 12:54 PM CDT (10/6)
Length of Visible Light 12h 31m
Length of Day
11h 45m
Waning Gibbous, 65% of the Moon is Illuminated
Oct 6
Waning Gibbous
Oct 8
Last Quarter
Oct 15
New
Oct 21
First Quarter
Oct 29
Full

Hourly Weather History & Observations

Time (CDT) Temp. Heat Index Dew Point Humidity Pressure Visibility Wind Dir Wind Speed Gust Speed Precip Events Conditions
12:53 AM 73.0 °F - 66.9 °F 81% 29.98 in 10.0 mi SSE 4.6 mph - N/A   Clear
1:53 AM 69.1 °F - 64.9 °F 87% 29.97 in 10.0 mi SW 5.8 mph - N/A   Clear
2:53 AM 70.0 °F - 64.9 °F 84% 29.96 in 10.0 mi Calm Calm - N/A   Clear
3:53 AM 69.1 °F - 64.0 °F 84% 29.95 in 10.0 mi Calm Calm - N/A   Clear
4:53 AM 69.1 °F - 64.0 °F 84% 29.94 in 10.0 mi Calm Calm - N/A   Clear
5:53 AM 68.0 °F - 63.0 °F 84% 29.95 in 10.0 mi SSE 3.5 mph - N/A   Partly Cloudy
6:53 AM 69.1 °F - 64.0 °F 84% 29.96 in 10.0 mi Calm Calm - N/A   Clear
7:53 AM 68.0 °F - 62.1 °F 81% 29.97 in 10.0 mi Calm Calm - N/A   Clear
8:53 AM 77.0 °F - 69.1 °F 76% 29.98 in 10.0 mi Calm Calm - N/A   Clear
9:53 AM 82.9 °F 86.5 °F 69.1 °F 63% 29.99 in 10.0 mi East 5.8 mph - N/A   Clear
10:53 AM 84.0 °F 87.0 °F 68.0 °F 58% 29.99 in 10.0 mi ESE 6.9 mph - N/A   Clear
11:53 AM 87.1 °F 91.3 °F 69.1 °F 55% 29.98 in 10.0 mi East 9.2 mph - N/A   Partly Cloudy
12:53 PM 88.0 °F 92.1 °F 69.1 °F 53% 29.96 in 10.0 mi East 10.4 mph - N/A   Clear
1:53 PM 88.0 °F 92.1 °F 69.1 °F 53% 29.94 in 10.0 mi East 15.0 mph 19.6 mph N/A   Partly Cloudy
2:53 PM 87.1 °F 92.0 °F 70.0 °F 57% 29.92 in 10.0 mi East 13.8 mph 20.7 mph N/A   Partly Cloudy
3:53 PM 87.1 °F 91.3 °F 69.1 °F 55% 29.91 in 10.0 mi East 13.8 mph 20.7 mph N/A   Clear
4:53 PM 86.0 °F 90.1 °F 69.1 °F 57% 29.90 in 10.0 mi ESE 15.0 mph - N/A   Clear
5:53 PM 84.9 °F 88.8 °F 69.1 °F 59% 29.89 in 10.0 mi East 13.8 mph - N/A   Clear
6:53 PM 82.9 °F 86.5 °F 69.1 °F 63% 29.91 in 10.0 mi East 12.7 mph - N/A   Clear
7:53 PM 81.0 °F 84.4 °F 70.0 °F 69% 29.92 in 10.0 mi East 9.2 mph - N/A   Clear
8:53 PM 80.1 °F 83.2 °F 70.0 °F 71% 29.94 in 10.0 mi East 9.2 mph - N/A   Clear
9:53 PM 80.1 °F 83.2 °F 70.0 °F 71% 29.95 in 10.0 mi East 9.2 mph - N/A   Clear
10:53 PM 80.1 °F 83.6 °F 71.1 °F 74% 29.95 in 10.0 mi East 8.1 mph - N/A   Partly Cloudy
11:53 PM 81.0 °F 85.2 °F 72.0 °F 74% 29.96 in 10.0 mi ESE 8.1 mph - N/A   Partly Cloudy